This demonstration page uses our WeatherBlox Daily Observations layout. Learn more.

Left ArrowRight Arrow

Hourly Observations for September 7, 2019

Temp ( °F °C ) Dew Point ( °F °C ) Humidity (%) Winds ( mph kmh ) Pressure ( in mb ) Visibility ( mi km ) Precip ( " mm )
12:51 am 00:51 Clear 86 30 52 11.1 31 31 NW 9 15 29.81 1010 10 16 0.00 0.00
1:51 am 01:51 Clear 84 28.9 52 11.1 33 33 NW 7 11 29.80 1009 10 16 0.00 0.00
2:51 am 02:51 Clear 81 27.2 52 11.1 37 37 NW 6 9 29.80 1009 10 16 0.00 0.00
3:51 am 03:51 Clear 80 26.7 53 11.7 39 39 NNW 7 11 29.80 1009 10 16 0.00 0.00
4:51 am 04:51 Clear 82 27.8 55 12.8 40 40 NW 8 13 29.80 1009 10 16 0.00 0.00
7:51 am 07:51 Sunny 86 30 54 12.2 33 33 VRB 3 6 29.83 1010 10 16 0.00 0.00
8:51 am 08:51 undefined 92 33.3 55 12.8 29 29 NW 10 17 29.82 1010 10 16 0.00 0.00
10:51 am 10:51 Sunny 98 36.7 55 12.8 24 24 WNW 17 28 29.79 1009 10 16 0.00 0.00
11:51 am 11:51 Sunny 99 37.2 54 12.2 22 22 WNW 8 13 29.76 1008 10 16 0.00 0.00
12:51 pm 12:51 Sunny 100 37.8 50 10 18 18 WSW 9 15 29.73 1007 10 16 0.00 0.00
1:51 pm 13:51 Sunny 101 38.3 53 11.7 20 20 WSW 15 24 29.70 1006 10 16 0.00 0.00
2:51 pm 14:51 Sunny 96 35.6 51 10.6 22 22 W 16 26 29.69 1006 10 16 0.00 0.00
3:51 pm 15:51 Sunny 100 37.8 53 11.7 21 21 W 15 24 29.67 1005 10 16 0.00 0.00
4:21 pm 16:21 Sunny with Nearby Thunderstorms 98 36.7 52 11.1 21 21 W 10 17 29.57 1001 10 16 0.00 0.00
4:51 pm 16:51 Mostly Cloudy with Nearby Thunderstorms 90 32.2 56 13.3 32 32 E 25 41 29.72 1006 10 16 0.00 0.00
5:09 pm 17:09 Cloudy with Nearby Thunderstorms 90 32.2 53 11.7 28 28 NE 20 31 29.65 1004 10 16 0.00 0.00
5:33 pm 17:33 Cloudy with Thunderstorms 84 28.9 59 15 43 43 E 14 22 29.72 1006 10 16 0.00 0.00
5:46 pm 17:46 Cloudy with Strong Thunderstorms 75 24 66 19 74 74 VRB 6 9 29.83 1010 2 2 0.00 0.00
5:51 pm 17:51 Cloudy with Strong Thunderstorms 74 23.3 66 18.9 76 76 ENE 12 19 29.86 1011 1 2 0.14 3.56
6:11 pm 18:11 Cloudy with Thunderstorms 72 22 66 19 83 83 E 15 24 29.84 1010 3 5 0.00 0.00
6:18 pm 18:18 Mostly Cloudy with Light Rain 72 22.2 67 19.4 84 84 ENE 13 20 29.83 1010 8 13 0.40 10.16
6:51 pm 18:51 Cloudy with Nearby Thunderstorms 73 22.8 66 18.9 79 79 ESE 3 6 29.89 1012 10 16 0.40 10.16
7:09 pm 19:09 Cloudy with Thunderstorms 73 22.8 68 20 84 84 Calm 29.88 1012 10 16 0.00 0.00
7:24 pm 19:24 Cloudy with Nearby Thunderstorms 73 23 66 19 78 78 E 6 9 29.86 1011 10 16 0.00 0.00
7:34 pm 19:34 Cloudy with Light Rain 73 22.8 67 19.4 81 81 NE 13 20 29.87 1011 8 13 0.03 0.76
7:51 pm 19:51 Cloudy with Light Rain 74 23.3 66 18.9 76 76 NE 20 31 29.86 1011 10 16 0.03 0.76
8:51 pm 20:51 Mostly Clear 74 23.3 65 18.3 74 74 WSW 5 7 29.85 1011 10 16 0.02 0.51
9:51 pm 21:51 Clear 73 22.8 66 18.9 79 79 W 3 6 29.85 1011 10 16 0.00 0.00
10:51 pm 22:51 Clear 73 22.8 66 18.9 79 79 NW 12 19 29.85 1011 10 16 0.00 0.00
11:51 pm 23:51 Clear 71 21.7 66 18.9 84 84 WNW 12 19 29.85 1011 10 16 0.00 0.00

Powered by AerisWeather